Date,TemperatureHighF,TemperatureAvgF,TemperatureLowF,DewpointHighF,DewpointAvgF,DewpointLowF,HumidityHigh,HumidityAvg,HumidityLow,PressureMaxIn,PressureMinIn,WindSpeedMaxMPH,WindSpeedAvgMPH,GustSpeedMaxMPH,PrecipitationSumIn
2013-6-1,85.0,75.0,67.0,64.0,60.6,56.0,82,62,44,0.00,40.00,7,5,17,0.03
2013-6-2,70.0,66.4,63.0,67.0,63.8,62.0,98,91,82,0.00,40.00,7,4,16,1.02
2013-6-3,78.0,67.5,61.0,66.0,62.4,58.0,99,85,62,0.00,40.00,4,2,7,0.02
2013-6-4,82.0,67.7,54.0,64.0,59.4,53.0,98,78,52,0.00,40.00,6,2,14,0.01
2013-6-5,81.0,69.8,62.0,66.0,62.3,60.0,98,79,56,0.00,40.00,7,5,17,1.44
2013-6-6,78.0,69.1,63.0,69.0,65.1,62.0,98,88,68,0.00,40.00,7,3,19,1.46
2013-6-7,77.0,68.5,64.0,70.0,65.7,63.0,98,92,72,0.00,40.00,4,1,11,0.39
2013-6-8,76.0,66.4,57.0,65.0,61.3,56.0,98,86,62,0.00,40.00,4,2,5,0.51
2013-6-9,81.0,67.2,59.0,69.0,63.2,58.0,98,88,62,0.00,40.00,7,4,24,0.16
2013-6-10,79.0,69.7,62.0,68.0,62.8,56.0,97,81,53,0.00,40.00,7,4,21,0.40
2013-6-11,81.0,70.5,63.0,65.0,62.8,60.0,97,78,56,0.00,40.00,5,2,11,0.03
2013-6-12,89.0,74.6,61.0,75.0,67.3,60.0,98,80,58,0.00,40.00,3,3,10,0.00
2013-6-13,84.0,71.9,65.0,71.0,66.7,62.0,97,84,62,0.00,40.00,6,3,18,0.43
2013-6-14,78.0,65.9,55.0,62.0,57.9,54.0,98,79,49,0.00,40.00,4,2,7,0.10
2013-6-15,83.0,67.3,52.0,62.0,57.5,51.0,98,75,46,0.00,40.00,5,2,7,0.00
2013-6-16,84.0,70.5,59.0,67.0,62.8,58.0,97,79,53,0.00,40.00,4,2,7,0.00
2013-6-17,80.0,69.2,64.0,70.0,66.5,63.0,98,92,69,0.00,40.00,4,1,8,0.59
2013-6-18,71.0,66.6,63.0,69.0,65.2,61.0,98,96,90,0.00,40.00,4,2,11,0.61
2013-6-19,81.0,68.4,59.0,68.0,62.5,59.0,99,84,51,0.00,40.00,4,1,7,0.01
2013-6-20,85.0,69.9,62.0,69.0,63.2,60.0,94,81,58,0.00,40.00,5,3,11,0.00
2013-6-22,83.0,77.3,66.0,63.0,59.7,54.0,78,56,40,0.00,40.00,5,2,12,0.01
2013-6-23,85.0,72.4,61.0,67.0,62.3,58.0,92,72,50,0.00,40.00,6,3,14,0.01
2013-6-24,86.0,73.1,64.0,73.0,66.5,63.0,98,81,57,0.00,40.00,5,3,14,0.25
2013-6-25,83.0,71.9,63.0,72.0,67.5,62.0,99,88,66,0.00,40.00,4,2,8,0.29
2013-6-26,82.0,71.3,63.0,73.0,67.6,62.0,99,89,72,0.00,40.00,4,2,8,0.19
2013-6-27,79.0,69.7,63.0,72.0,67.6,62.0,98,94,79,0.00,40.00,5,3,17,2.02
2013-6-28,84.0,70.2,64.0,71.0,67.5,62.0,99,92,66,0.00,40.00,4,3,12,1.02
2013-6-29,83.0,70.5,62.0,68.0,62.6,59.0,99,79,45,0.00,40.00,4,2,8,0.32
2013-6-30,84.0,69.2,58.0,66.0,61.8,57.0,98,81,49,0.00,40.00,4,2,8,0.29